Regional Weather Roundup
Issued by NWS

Home | Current Version | Previous Version | Graphics & Text | Print | Product List | Glossary On
Versions: 1 2 3 4 5 6 7 8 9 10 11 12 13 14 15 16 17 18 19 20 21 22 23 24 25 26 27 28 29 30 31 32 33 34 35 36 37 38 39 40 41 42 43 44 45 46 47 48 49 50
000
ASUS43 KLOT 192309
RWRIL

ILLINOIS REGIONAL WEATHER ROUNDUP
NATIONAL WEATHER SERVICE CHICAGO/ROMEOVILLE IL
600 PM CDT WED JUL 19 2017

NOTE: "FAIR" INDICATES FEW OR NO CLOUDS BELOW 12,000 FEET WITH NO
SIGNIFICANT WEATHER AND/OR OBSTRUCTIONS TO VISIBILITY.

* THESE STATIONS ARE NOT UNDER NWS QUALITY CONTROL. THEY ALSO MAY NOT
  REPORT WEATHER SUCH AS PRECIPITATION OR FOG.

ILZ001-002-007-009-015-016-024-200000-
NORTHWEST ILLINOIS

CITY           SKY/WX    TMP DP  RH WIND       PRES   REMARKS
MOLINE         SUNNY     90  73  57 S7        30.01F HX  98
STERLING*      SUNNY     88  77  69 CALM      30.02F HX 100
SAVANNA*       SUNNY     89  75  63 SE5       30.02R HX  99
$$

ILZ003-004-008-010-011-017-018-200000-
NORTH CENTRAL ILLINOIS

CITY           SKY/WX    TMP DP  RH WIND       PRES   REMARKS
ROCKFORD       PTSUNNY   89  73  59 S5        30.03F HX  97
FREEPORT*      SUNNY     86  74  67 SE6       30.04F HX  93
ROCHELLE*        N/A    N/A N/A N/A MISG        N/A
DE KALB*       LGT RAIN  84  76  75 E5        30.05F HX  93
PERU*          SUNNY     89  74  61 SW6       30.03F HX  98
$$

ILZ005-006-012>014-019>023-200000-
NORTHEAST ILLINOIS

CITY           SKY/WX    TMP DP  RH WIND       PRES   REMARKS
CHICAGO-OHARE  PTSUNNY   83  69  62 E7        30.05F HX  86
CHICAGO-MIDWAY CLOUDY    82  69  64 E9        30.05F HX  85
AURORA         MOSUNNY   85  73  67 E14       30.04F HX  91
LANSING*       CLOUDY    82  69  65 NE8       30.06F HX  85
JOLIET*        PTSUNNY   85  75  71 E9        30.05S HX  94
WAUKEGAN       SUNNY     75  66  73 E9        30.05F
DUPAGE AIRPORT LGT RAIN  83  75  77 SE7       30.04F HX  90
WHEELING       SUNNY     77  71  82 E5        30.07F
MORRIS*        MOSUNNY   86  76  72 CALM      30.03F HX  95
ROMEOVILLE*    PTSUNNY   80  73  76 SE8       30.06S HX  85
NORTHERLY ISL    N/A     74  69  85 CALM        N/A
$$

LMZ740>746-200000-
SOUTHERN LAKE MICHIGAN

STATION/POSITION SKY/WX   TEMP    WIND        PRES    VSBY  WAVE
                          AIR SEA DIR/SP/G                  HT/PER
                          (F)     (DEG/KT/KT) (MB)    (MI)  (FT/S)
SOUTHERN BUOY              70 71   20/  6/  6 1018.4          1
WILMETTE HARBOR            72 72   50/  4/  4   N/A           1/ 3
HARRISON CRIB              73      40/  7/  8   N/A
BURNHAM HARBOR             74                   N/A
CALUMET HARBOR             74      10/  5/  7 1018.0F
BURNS HARBOR               76      70/  9/ 12 1018.3F
MICHIGAN CITY              73      40/ 10/ 10   N/A
MICHIGAN CITY 6N           74 75   80/  8/ 10   N/A           1/ 2
ST. JOSEPH                 74 75   60/  6/  8 1017.7          1/ 2
$$

ILZ025>027-034>036-040-047-049-050-058-095>099-200000-
WEST-CENTRAL ILLINOIS

CITY           SKY/WX    TMP DP  RH WIND       PRES   REMARKS
QUINCY         PTSUNNY   91  74  57 S8        30.03F HX 100
GALESBURG*     MOSUNNY   89  76  66 S3        30.04F HX 100
MACOMB*        SUNNY     90  74  59 SW5       30.05F HX  98
JACKSONVILLE*  SUNNY     91  71  51 SW7       30.04F HX  97
PITTSFIELD*    MOSUNNY   92  73  53 S5        30.05F HX 100
$$

ILZ028>032-037-038-041>044-048-051>054-059>061-200000-
CENTRAL ILLINOIS

CITY           SKY/WX    TMP DP  RH WIND       PRES   REMARKS
PONTIAC        SUNNY     90  76  64 S3        30.04F HX 102
BLOOMINGTON    MOSUNNY   90  73  57 SW10      30.07F HX  98
DECATUR        SUNNY     89  76  65 E7        30.06F HX 100
PEORIA         SUNNY     90  73  57 S8        30.03F HX  98
LACON*         SUNNY     90  74  60 SW3       30.01F HX  99
SPRINGFIELD    SUNNY     94  75  54 W5        30.04F HX 105
TAYLORVILLE    SUNNY     91  74  56 CALM      30.05F HX 101
$$

ILZ033-039-045-046-055>057-062-063-200000-
EAST-CENTRAL ILLINOIS

CITY           SKY/WX    TMP DP  RH WIND       PRES   REMARKS
CHAMPAIGN      SUNNY     89  74  60 SW5       30.07F HX  98
RANTOUL*       MOSUNNY   89  79  72 SE5       30.06F HX 105
MATTOON        SUNNY     90  74  59 CALM      30.06F HX  99
PARIS*         SUNNY     88  78  71 SE6       30.08F HX 101
$$

ILZ079-100>102-200000-
SOUTHWEST ILLINOIS

CITY           SKY/WX    TMP DP  RH WIND       PRES   REMARKS
ALTON          MOSUNNY   91  77  62 VRB5      30.06S HX 105
BELLEVILLE     SUNNY     94  74  52 S3        30.05F HX 103
CAHOKIA*       SUNNY     97  67  37 S7        30.03F HX 101
SPARTA*        SUNNY     93  73  51 SW8       30.06F HX 102
$$

ILZ064>066-069>071-074>076-080>082-084>086-088>090-092>094-200000-
SOUTH-CENTRAL ILLINOIS

CITY           SKY/WX    TMP DP  RH WIND       PRES   REMARKS
CARBONDALE     SUNNY     92  76  59 W3        30.06S HX 104
CAIRO*         SUNNY     91  74  57 SW5       30.07S HX 100
EFFINGHAM*     SUNNY     94  71  48 CALM      30.07F HX 100
MARION         MOSUNNY   91  77  62 S12       30.07S HX 105
MT. VERNON     PTSUNNY   92  76  59 SW9       30.06S HX 104
CENTRALIA*     MOSUNNY   93  73  52 CALM      30.05F HX 103
SALEM*         SUNNY     94  69  43 CALM      30.06F HX 100
METROPOLIS*    SUNNY     92  72  51 SW5       30.07S HX  99
$$

ILZ067-068-072-073-078-083-087-091-200000-
SOUTHEAST ILLINOIS

CITY           SKY/WX    TMP DP  RH WIND       PRES   REMARKS
LAWRENCEVILLE  SUNNY     89  74  60 SE5       30.07F HX  98
FLORA*         SUNNY     95  68  40 CALM      30.06S HX 100
FAIRFIELD*     MOSUNNY   92  76  60 CALM      30.05F HX 103
HARRISBURG*    PTSUNNY   92  77  61 SW5       30.06F HX 106
ROBINSON*      SUNNY     87  74  64 SE7       30.08F HX  96
CARMI*         SUNNY     91  77  64 CALM      30.05F HX 105
$$

ABBREVIATIONS USED IN REMARKS
   TC - TEMPERATURE IN CELSIUS
  WCI - WIND CHILL INDEX
   HX - HEAT INDEX
  VSB - VISIBILITY
$$





USA.gov is the U.S. government's official web portal to all federal, state and local government web resources and services.